Powrót do katalogu

COSMOS 2330

AktywnyMilitariaPO
NORAD 23792·PAYLOAD·🇷🇺 Russia

Wystrzelony Feb 19, 1996 z Plesetsk Cosmodrome

Loading…

Następne Przeloty (najbliższe 24 godziny)

TLE

ŚwieżeSource: Space-Track

Epoka: Sep 14, 2026, 13:20 UTC

1 23792U 96009F   26257.55615934  .00000024  00000-0  75280-4 0  9999
2 23792  82.5773 287.0465 0010584 232.4323 127.5807 12.60979322406906

Śledź COSMOS 2330 w czasie rzeczywistym z AllMySat

Download on the App Store